Kaneohe MCBH, HI

7:07 PM HST on June 26, 2017 (GMT -1000)
Kaneohe Bay Marine Corps Air Facility

Weather History for PHNG - January, 2014

Change the Weather History Date:

Wednesday, January 8, 2014

  Actual Average Record
Temperature  
Mean Temperature 74 °F -  
Max Temperature 78 °F 76 °F 82 °F (2002)
Min Temperature 71 °F 66 °F 61 °F (1997)
Cooling Degree Days 10    
Growing Degree Days 24 (Base 50)    
Moisture  
Dew Point 60 °F    
Average Humidity 62    
Maximum Humidity 74    
Minimum Humidity 49    
Precipitation  
Precipitation 0.10 in - - ()
Sea Level Pressure  
Sea Level Pressure 30.01 in    
Wind  
Wind Speed 10 mph (NNE)    
Max Wind Speed 17 mph    
Max Gust Speed 24 mph    
Visibility 7 miles    
Events Rain    
Averages and records for this station are not official NWS values.
T = Trace of Precipitation, MM = Missing Value Source: NWS Daily Summary

Daily Weather History Graph

Daily Weather History Graph

Search for Another Location

Airport or City:

Trip Planner

Search our weather history database for the weather conditions in past years. The results will help you decide how hot, cold, wet, or windy it might be!

Date:

Astronomy

Jan. 08, 2014 Rise Set
Actual Time 7:10 AM HST 6:05 PM HST
Civil Twilight 6:46 AM HST 6:29 PM HST
Nautical Twilight 6:19 AM HST 6:56 PM HST
Astronomical Twilight 5:52 AM HST 7:23 PM HST
Moon 12:43 PM HST (1/8) 12:52 AM HST (1/8)
Length of Visible Light 11h 42m
Length of Day
10h 54m
First Quarter, 58% of the Moon is Illuminated
Jan 8
First Quarter
Jan 15
Full
Jan 23
Last Quarter
Jan 30
New
Feb 6
First Quarter

Hourly Weather History & Observations

Time (HST) Temp. Dew Point Humidity Pressure Visibility Wind Dir Wind Speed Gust Speed Precip Events Conditions
12:57 AM 71.6 °F 57.0 °F 60% 30.05 in 8.0 mi NE 10.4 mph 18.4 mph N/A   Scattered Clouds
1:57 AM 71.6 °F 57.0 °F 60% 30.03 in 8.0 mi NE 11.5 mph - 0.00 in   Mostly Cloudy
2:57 AM 71.6 °F 57.0 °F 60% 30.02 in 8.0 mi NE 16.1 mph - N/A   Mostly Cloudy
3:57 AM 71.6 °F 55.0 °F 56% 30.01 in 7.0 mi NE 15.0 mph 19.6 mph N/A   Scattered Clouds
4:57 AM 71.6 °F 55.9 °F 58% 30.01 in 8.0 mi NE 11.5 mph 21.9 mph N/A   Mostly Cloudy
5:57 AM 71.6 °F 55.9 °F 58% 30.03 in 8.0 mi NNE 13.8 mph 24.2 mph N/A   Mostly Cloudy
6:57 AM 71.6 °F 55.9 °F 58% 30.04 in 8.0 mi NE 13.8 mph 20.7 mph N/A   Mostly Cloudy
7:57 AM 71.6 °F 55.9 °F 58% 30.04 in 7.0 mi NE 9.2 mph 19.6 mph N/A   Partly Cloudy
8:57 AM 73.4 °F 55.9 °F 54% 30.05 in 7.0 mi NNE 10.4 mph - N/A   Mostly Cloudy
9:57 AM 75.2 °F 57.9 °F 55% 30.05 in 7.0 mi NNE 16.1 mph 20.7 mph N/A   Scattered Clouds
10:57 AM 75.7 °F 59.0 °F 56% 30.05 in 7.0 mi NNE 17.3 mph - N/A   Scattered Clouds
11:57 AM 77.0 °F 57.9 °F 52% 30.02 in 7.0 mi NNE 17.3 mph 23.0 mph N/A   Overcast
12:57 PM 77.0 °F 57.9 °F 52% 29.99 in 7.0 mi NNE 15.0 mph 24.2 mph N/A   Overcast
1:57 PM 78.8 °F 57.9 °F 49% 29.96 in 7.0 mi North 6.9 mph - 0.00 in   Overcast
2:57 PM 78.8 °F 60.1 °F 53% 29.95 in 7.0 mi NE 3.5 mph - 0.02 in Rain Light Rain
3:49 PM 77.0 °F 60.8 °F 57% 29.97 in 6.0 mi Variable 4.6 mph - 0.02 in   Haze
3:57 PM 77.0 °F 60.1 °F 56% 29.96 in 6.0 mi WNW 6.9 mph - 0.02 in   Haze
4:14 PM 77.0 °F 62.6 °F 61% 29.97 in 6.2 mi SW 5.8 mph - N/A   Overcast
4:57 PM 77.0 °F 62.1 °F 60% 29.97 in 7.0 mi North 12.7 mph - 0.01 in   Mostly Cloudy
5:08 PM 77.0 °F 64.4 °F 65% 29.98 in 6.0 mi North 3.5 mph - 0.04 in Rain Rain
5:46 PM 77.0 °F 64.4 °F 65% 29.99 in 6.2 mi North 11.5 mph - 0.05 in   Mostly Cloudy
5:57 PM 77.0 °F 64.0 °F 64% 29.98 in 7.0 mi North 11.5 mph - 0.05 in   Partly Cloudy
6:57 PM 75.2 °F 62.1 °F 64% 29.98 in 7.0 mi North 9.2 mph - N/A   Mostly Cloudy
7:51 PM 73.4 °F 62.6 °F 69% 30.01 in 4.0 mi East 4.6 mph - 0.00 in Rain Light Rain
7:57 PM 73.4 °F 62.1 °F 68% 30.00 in 4.0 mi Calm Calm - 0.00 in Rain Light Rain
8:35 PM 73.4 °F 62.6 °F 69% 30.02 in 6.2 mi NNE 8.1 mph - 0.00 in   Overcast
8:57 PM 73.4 °F 62.1 °F 68% 30.01 in 7.0 mi North 10.4 mph - 0.00 in   Overcast
9:57 PM 71.6 °F 63.0 °F 74% 30.02 in 8.0 mi Calm Calm - N/A   Mostly Cloudy
10:35 PM 73.4 °F 62.6 °F 69% 30.03 in 6.2 mi Calm Calm - N/A   Overcast
10:50 PM 73.4 °F 62.6 °F 69% 30.03 in 6.2 mi Calm Calm - N/A   Scattered Clouds
10:57 PM 73.4 °F 62.1 °F 68% 30.01 in 10.0 mi Calm Calm - N/A   Mostly Cloudy
11:46 PM 71.6 °F 62.6 °F 73% 30.02 in 6.2 mi Calm Calm - N/A   Scattered Clouds
11:57 PM 71.6 °F 63.0 °F 74% 30.00 in 9.0 mi Calm Calm - N/A   Scattered Clouds